Location: *
(46.4833°N, 7.6667°E)
Time: 19:03:02
(UTC+00:00)

SJ 16-02 - Pass Details

Date: 27 February 2020
Orbit: 606 x 616 km, 75.0° (Epoch: 30 March)

Event Time Altitude Azimuth Distance (km) Brightness Sun altitude
Rises 19:00:12 0° 333° (NNW) 2,888 5.3 -19.4°
Reaches altitude 10° 19:02:32 10° 327° (NNW) 1,977 4.5 -19.8°
Maximum altitude 19:06:41 42° 257° (WSW) 876 2.5 -20.5°
Drops below altitude 10° 19:10:49 10° 186° (S) 1,956 3.9 -21.2°
Enters shadow 19:12:51 - 180° (S) 2,752 4.6 -21.6°
